STARLINK-2234 (48580 NORAD) Tracking and Keplerian Element Data

This shows tracking and keplerian element data for the satellite.

Feedback or suggestion? Click here.




ElementValue
Catalog48580
NameSTARLINK-2234
Epoch Orbit368
Epoch Day288.00002315
Epoch Year2021
RAAN119.3318
Inclination53.0574
Eccentricity0.0002141
Argument of Perigee35.4757
Mean Anonmoly186.3495
Mean Motion15.07826082
Decay Rate-0.01059218
L11 48580U 21041AD 21288.00002315 -.01059218 00000-0 -73854-1 0 9991
L22 48580 53.0574 119.3318 0002141 35.4757 186.3495 15.07826082 3688

Live tracking and technical data element details for STARLINK-2234 (NORAD 48580). STARLINK-2234 can be tracked NOW for your location showing map with azimuth and elevation plus other details from your city location.

Track the satellite on the map from your city or location and see movement details for azimuth, elevation, latitude, longitude, range, height, and movement on the map or in text.







IsCatalogInMostPopularTable: catalog: 48580, numindb: 37
Update: records affected: 1



GetName: 48580 STARLINK-2234

Hit Count: updated at: Tue, 19 Oct 2021 08:22:03 GMT